{"data":{"norad_id":62761,"epoch":"2026-05-24T21:23:26.108160Z","epoch_age_seconds":84687,"freshness":"FRESH","line1":"1 62761U 25015D   26144.89127440  .00018798  00000+0  56606-3 0  9995","line2":"2 62761  53.1604 328.1091 0000848  80.5132 279.5966 15.34401420 76153","mean_motion":15.3440142,"eccentricity":8.48e-5,"inclination_deg":53.1604,"raan_deg":328.1091,"arg_perigee_deg":80.5132,"mean_anomaly_deg":279.5966,"bstar":0.00056606,"rev_number":7615,"period_min":93.847671230648,"perigee_km":462.11891677664,"apogee_km":463.27912256558,"semimajor_km":6840.8360196711,"source":"CELESTRAK","updated_at":"2026-05-25T13:38:19.743580Z"}}